Preview of NWS' New Version of Forecast
This preview is not operational and should not be used for support decisions.

Regional Weather Roundup (RWR)

Issued by Gray - Portland, ME (GYX)

                            
000
ASUS41 KGYX 211605
RWRGYX
WEATHER ROUNDUP FOR MAINE AND NEW HAMPSHIRE
NATIONAL WEATHER SERVICE GRAY ME
1200 PM EDT THU JUN 21 2018

MEZ002-005-006-010-012-015-018-020-021-024-026-027-029-211700-
MAINE
  
CITY           SKY/WX    TMP DP  RH WIND       PRES   REMARKS
PORTLAND       PTSUNNY   71  53  52 VRB6      29.79S                  
SANFORD        CLOUDY    70  59  68 E5        29.80S                  
BAR HARBOR     FAIR      70  48  45 N8G18     29.78S                  
WISCASSET      PTSUNNY   71  55  56 CALM      29.79F                  
ROCKLAND       FAIR      69  53  56 VRB6      29.78S                  
FRYEBURG       FAIR      75  53  46 MISG      29.79F                  
LEWISTONAUBURN FAIR      72  49  44 W6        29.79S                  
AUGUSTA        FAIR      73  48  41 NE5       29.79S                  
WATERVILLE     FAIR      71  47  42 N7        29.76F                  
BANGOR         FAIR      71  48  43 NW10      29.79F                  
GREENVILLE       N/A     62  44  51 NW8       29.80F                  
MILLINOCKET    FAIR      66  39  37 VRB6G17   29.81S                  
HOULTON        FAIR      64  41  42 NW9G26    29.79S                  
PRESQUE ISLE   FAIR      60  37  42 NW15      29.82S                  
FRENCHVILLE    PTSUNNY   58  36  43 NW16      29.82R                  
CARIBOU        PTSUNNY   61  39  44 NW14G20   29.81R                  
$$

NHZ002-005-008-009-011-012-014-211700-
NEW HAMPSHIRE
  
CITY           SKY/WX    TMP DP  RH WIND       PRES   REMARKS
PORTSMOUTH     PTSUNNY   77  56  46 N6        29.77S                  
ROCHESTER      CLOUDY    71  58  63 NW9       29.79S                  
NASHUA         PTSUNNY   77  59  53 NW7       29.78F                  
MANCHESTER     PTSUNNY   80  57  45 N8G16     29.77F                  
CONCORD        PTSUNNY   73  57  57 NW8       29.80S                  
LACONIA        LGT RAIN  68  55  63 CALM      29.82R                  
PLYMOUTH       PTSUNNY   69  49  47 CALM      29.81F                  
BERLIN         FAIR      70  42  36 N9        29.83S                  
WHITEFIELD     FAIR      72  44  36 W8        29.83F                  
JAFFREY        CLOUDY    78  57  48 NW9       29.81S                  
KEENE          CLOUDY    79  56  45 N10       29.80F                  
LEBANON        FAIR      74  50  42 N8        29.83S                  
MT WASHINGTON  MOSUNNY   43  34  70 NW18G25     N/A                   
$$

VTZ005-007-008-211700-
VERMONT
  
CITY           SKY/WX    TMP DP  RH WIND       PRES   REMARKS
ST JOHNSBURY     N/A     69  40  34 MISG      29.83F                  
MONTPELIER     FAIR      66  46  48 VRB6      29.90S                  
BURLINGTON     FAIR      67  44  43 NW14      29.89S                  
$$

MAZ007-012-024-CTZ003-RIZ002-NYZ038-NYZ072-211700-
SOUTHERN NEW ENGLAND AND NY
  
CITY           SKY/WX    TMP DP  RH WIND       PRES   REMARKS
BOSTON         FAIR      79  56  45 E13       29.77S                  
WORCESTER      FAIR      77  58  51 CALM      29.81S                  
NANTUCKET      LGT RAIN  64  63  96 SE5       29.80S FOG              
PROVIDENCE     FAIR      75  59  57 SE7       29.79S                  
HARTFORD       FAIR      80  57  45 VRB3      29.79S                  
ALBANY         FAIR      75  58  55 N10       29.83S                  
NEW YORK CITY  FAIR      77  62  59 CALM      29.78S                  
$$

ANZ081-ANZ082-ANZ150-NHZ014-MEZ023>029-211700-
COASTAL MARINE OBSERVATIONS
  
STATION/POSITION TIME  TEMP    WIND        PRES    WAVE
                       AIR SEA DIR/SP/G            HT/PER
                 (UTC) (F)     (DEG/KT/KT) (MB)    (FT/S)
MOUNT DESERT ROC 1600   59      40/ 10/ 10 1008.6S
MATINICUS ROCK   1500   59      40/  9/  9 1008.3R
ISLE OF SHOALS   1500   69      40/  8/ 10 1008.1R
JEFFREYS LEDGE   1506      60                N/A     1/ 8
$$

.............KEY..............
   WCI - WIND CHILL
   TC  - TEMPERATURE IN CELSIUS
   VSB - VISIBILITY IN MILES
   HX  - HEAT INDEX
   FAIR- INDICATES FEW OR NO CLOUDS BELOW 12,000 FT, WITH NO 
         SIGNIFICANT WEATHER AND/OR OBSTRUCTIONS TO VISIBILITY.